THORAD DELTA 1 DEB, 8789

Orbit data source: Space-Track

THORAD DELTA 1 DEB, 8789 is space debris in SSO originally from a launch on Fri, 15 Nov 1974 UTC launched from the Air Force Western Test Range (AFWTR). Debris objects in space refer to the collection of defunct objects orbiting the Earth. Examples of debris include non-operational satellites, rocket bodies, and fragments generated from explosions, collisions, or faulty payload assembly.

Loading next visibility...
Identifier
8789, 1974-089DR
Orbit
SSO
Country
Flag of USUS
Related business
Manufacturer
Unknown
Mission
Spacecraft
Bus & Motor
Unknown
Mass
Unknown
Launch date (UTC)
1974-11-15 (51 years ago)
Launch vehicle
Unknown
Launch site
Air Force Western Test Range (AFWTR)
Object type
Payload
Rocket body
Debris
Shape & HBR
Unknown shape, 0.1 m
Radar Cross Section
Small (<0.1 m²)

Expand to show TLE details & history
Last TLE update: 23 hours ago

TLE from 23 hours ago
0 THORAD DELTA 1 DEB
1  8789U 74089DR  25353.38090551 -.00000091  00000-0 -33631-3 0  9990
2  8789 102.1284 301.1705 0105390 221.8733 291.8351 12.38985099310178
Epoch: 2025-12-19T09:08Z
TLE epoch observation values (Epoch: 2025-12-19T09:08:30.236Z)
Latitude
26.79316°
Longitude
-97.97894°
Altitude
1,483.684 km
Speed
7.138 km/s
True Right ascension
08h 29m 28s
True Declination
26° 40' 04"
Sunlit
Object was in full shadow at epoch
Visualization orbit readout
Latitude
Unknown
Longitude
Unknown
Altitude
Unknown
Speed
Unknown
Apparent Right ascension
Unknown
Apparent Declination
Unknown
Sunlit
N/A
Visualization observer readout
Local Sidereal Time
07:00:49
Azimuth
Unknown
Elevation
Unknown
Doppler factor
Unknown
Orbital elements
Apogee altitude
1,591.609 km
Perigee altitude
1,425.375 km
Semi-major axis
7,886.629 km
Eccentricity
0.01054
Inclination
102.1284°
RAAN
301.1705°
Arg. of periapsis
221.8733°
True anomaly
290.70861°
Mean anomaly
291.8351°
Eccentric anomaly
291.2724°
Mean motion
3.09889 °/min
Orbital period
116.17 mins
BSTAR
-0.00033631
Loading maneuver chart data...
Computing Atmospheric mass density...

Documentation

Showing up to 5 results
|